Regional Weather Roundup
Issued by NWS

Home | Current Version | Previous Version | Graphics & Text | Print | Product List | Glossary On
Versions: 1 2 3 4 5 6 7 8 9 10 11 12 13 14 15 16 17 18 19 20 21 22 23 24 25 26 27 28 29 30 31 32 33 34 35 36 37 38 39 40 41 42 43 44 45 46 47 48 49 50
000
ASUS43 KDMX 010507
RWRIA

WEATHER ROUNDUP FOR IOWA
NATIONAL WEATHER SERVICE DES MOINES IA
1200 AM CDT FRI AUG 01 2014

NOTE: "FAIR" INDICATES FEW OR NO CLOUDS BELOW 12,000 FEET WITH NO
SIGNIFICANT WEATHER AND/OR OBSTRUCTIONS TO VISIBILITY.

* - THESE STATIONS ARE NOT NWS STATIONS...THUS NOT UNDER NWS
QUALITY CONTROL.  THEY ALSO DO NOT REPORT WEATHER SUCH
AS PRECIPITATION OR FOG.

IAZ001>003-012>014-020>022-031>034-043>046-010600-
   NORTHWEST IOWA

CITY           SKY/WX    TMP DP  RH WIND       PRES   REMARKS
CARROLL *      CLEAR     57  55  94 CALM      30.07S
CHEROKEE *     CLEAR     59  59 100 CALM      30.08R
DENISON *      CLEAR     59  59 100 CALM      30.06R
LE MARS *      PTCLDY    61  59  94 SW5       30.08R
ORANGE CITY *  CLEAR     66  59  77 CALM      30.08R
SHELDON *      CLEAR     57  57 100 CALM      30.07R
SIOUX CITY     CLEAR     59  57  93 CALM      30.07R
SPENCER        CLEAR     58  56  93 CALM      30.07R
STORM LAKE *   CLEAR     57  57 100 CALM      30.09R
$$

IAZ055>058-069>071-079>083-090>094-010600-
   SOUTHWEST IOWA

CITY           SKY/WX    TMP DP  RH WIND       PRES   REMARKS
ATLANTIC *     CLOUDY    66  63  88 CALM      30.07R
AUDUBON *      CLEAR     64  63  94 CALM      30.09R
CLARINDA *     CLOUDY    68  63  83 S5        30.08R
COUNCIL BLFS *   N/A     66  63  88 SE7       30.06S
CRESTON *      PTCLDY    63  61  94 E6        30.07S
HARLAN  *      CLOUDY    64  63  94 CALM      30.10R
LAMONI         MOCLDY    71  55  56 CALM      30.06S
RED OAK *      CLOUDY    68  63  83 CALM      30.07R
SHENANDOAH *   CLOUDY    68  64  88 SE5       30.06F
$$

IAZ047>049-059>061-072>074-084-010600-
   CENTRAL IOWA

CITY           SKY/WX    TMP DP  RH WIND       PRES   REMARKS
AMES           CLEAR     60  58  92 CALM      30.07R
ANKENY *       CLEAR     61  59  94 CALM      30.07R
CHARITON *     MOCLDY    66  61  82 NE3       30.07R
DES MOINES     PTCLDY    65  61  87 CALM      30.06R
GRINNELL*      CLOUDY    64  61  88 W3        30.07R
KNOXVILLE *    MOCLDY    68  63  83 CALM      30.05S
MARSHALLTOWN   PTCLDY    60  58  92 W5        30.06R
PELLA *        MOCLDY    65  62  89 CALM      30.07S
PERRY *          N/A     59  59 100 CALM      30.07R
$$

IAZ004>006-015-016-023>025-035-036-010600-
   NORTH CENTRAL IOWA

CITY           SKY/WX    TMP DP  RH WIND       PRES   REMARKS
ALGONA *       CLEAR     63  61  94 CALM      30.07R
CLARION *      CLEAR     61  61 100 CALM      30.07R
ESTHERVILLE    PTCLDY    62  60  93 W5        30.06S
FORT DODGE *   PTCLDY    61  57  88 CALM      30.07S
MASON CITY     CLEAR     60  58  92 NW3       30.07R
FOREST CITY *  CLEAR     63  61  94 CALM      30.06R
IOWA FALLS *     N/A     61  59  94 CALM      30.08R
$$

IAZ007>011-017>019-026>030-037>042-050>054-066-010600-
   NORTHEAST IOWA

CITY           SKY/WX    TMP DP  RH WIND       PRES   REMARKS
CEDAR RAPIDS   CLEAR     63  61  93 S3        30.05R
CHARLES CITY * CLEAR     61  59  94 CALM      30.06R
CLINTON *      PTCLDY    64  61  88 CALM      30.08S
DECORAH *      CLOUDY    63  55  77 CALM      30.04S
DUBUQUE        CLEAR     62  59  90 CALM      30.06R
MONTICELLO *   CLEAR     61  59  94 CALM      30.05R
OELWEIN *      CLEAR     63  61  94 S3        30.06S
WATERLOO       CLEAR     62  59  90 CALM      30.04R
$$

IAZ064-065-067-068-078-010600-
   EAST CENTRAL IOWA

CITY           SKY/WX    TMP DP  RH WIND       PRES   REMARKS
DAVENPORT      CLEAR     61  59  93 CALM      30.06S
IOWA CITY      PTCLDY    65  62  90 CALM      30.06S
MT. PLEASANT * CLOUDY    68  64  88 CALM      30.07R
MUSCATINE *    CLEAR     66  63  88 CALM      30.06R
QUAD CITIES    CLEAR     65  61  87 CALM      30.05S
$$

IAZ062-063-075>077-085>089-095>099-010600-
   SOUTHEAST IOWA

CITY           SKY/WX    TMP DP  RH WIND       PRES   REMARKS
BURLINGTON     CLOUDY    68  65  90 CALM      30.06R
FAIRFIELD *    CLOUDY    70  63  78 SW5       30.06S
FORT MADISON * CLEAR     70  63  78 CALM      30.07S
KEOKUK *       CLEAR     66  63  88 CALM      30.06R
OSKALOOSA *      N/A     66  63  88 CALM      30.07R
CENTERVILLE *  CLEAR     61  61 100 CALM      30.08S
OTTUMWA        MOCLDY    66  63  90 SE3       30.06R
WASHINGTON *   CLOUDY    68  66  94 CALM      30.06S
$$

ABBREVIATIONS USED IN REMARKS
   TC - TEMPERATURES IN CELSIUS
  WCI - WIND CHILL INDEX
   HX - HEAT INDEX
  VSB - VISIBILITY
$$



USA.gov is the U.S. government's official web portal to all federal, state and local government web resources and services.